BRU009 UMMS-LYTV

Flight info

Callsign BRU009
Flight time N/A
Altitude 34000
Route OSMUS2F OSMUS Z369 BRT L856 TOSPO/N0443F340 Z367 KEFIR DCT KEKED DCT PARAK/N0451F350 DCT BGD/N0448F340 DCT POD
Aircraft B738/M-SDE2E3FGHIRWY/LB1

Departure

Time 2026-05-01 14:55
Airport Minsk National Airport (UMMS)

Arrival

Time N/A
Airport Tivat Airport (LYTV)
Time Latitude Longitude Altitude Speed Heading
2026-05-01 14:33 53.88911 28.03580 637 ft 0 kts 314°
2026-05-01 14:44 53.88904 28.03592 637 ft 4 kts 314°
2026-05-01 14:44 53.88887 28.03620 638 ft 4 kts 305°
2026-05-01 14:45 53.88881 28.03655 637 ft 4 kts 243°
2026-05-01 14:45 53.88898 28.03690 638 ft 0 kts 223°
2026-05-01 14:48 53.88851 28.03614 635 ft 14 kts 227°
2026-05-01 14:48 53.88772 28.03460 637 ft 18 kts 228°
2026-05-01 14:48 53.88636 28.03320 642 ft 12 kts 144°
2026-05-01 14:49 53.88532 28.03569 635 ft 14 kts 55°
2026-05-01 14:49 53.88708 28.03909 640 ft 26 kts 49°
2026-05-01 14:50 53.88883 28.04252 642 ft 30 kts 50°
2026-05-01 14:50 53.89184 28.04846 642 ft 13 kts 68°
2026-05-01 14:51 53.89136 28.04981 635 ft 18 kts 138°
2026-05-01 14:51 53.88870 28.05376 635 ft 29 kts 138°
2026-05-01 14:52 53.88588 28.05797 635 ft 25 kts 140°
2026-05-01 14:52 53.88458 28.05989 638 ft 26 kts 139°
2026-05-01 14:52 53.88156 28.06437 635 ft 29 kts 139°
2026-05-01 14:53 53.88015 28.06651 635 ft 23 kts 137°
2026-05-01 14:53 53.87944 28.06781 637 ft 13 kts 110°
2026-05-01 14:53 53.87980 28.06905 640 ft 11 kts 50°
2026-05-01 14:53 53.88023 28.06979 642 ft 8 kts 36°
2026-05-01 14:54 53.88072 28.06959 635 ft 8 kts 323°
2026-05-01 14:54 53.88219 28.06741 642 ft 67 kts 319°
2026-05-01 14:54 53.88790 28.05897 635 ft 148 kts 319°
2026-05-01 14:54 53.89677 28.04584 1148 ft 179 kts 321°
2026-05-01 14:55 53.90672 28.03111 1986 ft 201 kts 320°
2026-05-01 14:55 53.91752 28.01496 2810 ft 207 kts 320°
2026-05-01 14:55 53.92858 27.99829 3507 ft 216 kts 320°
2026-05-01 14:55 53.94002 27.98123 4326 ft 221 kts 320°
2026-05-01 14:56 53.95125 27.96397 5265 ft 222 kts 318°
2026-05-01 14:56 53.96277 27.94434 5683 ft 249 kts 316°
2026-05-01 14:56 53.97502 27.92271 6424 ft 258 kts 317°
2026-05-01 14:56 53.98754 27.90050 7341 ft 261 kts 317°
2026-05-01 14:57 54.00012 27.87820 8246 ft 263 kts 318°
2026-05-01 14:57 54.02579 27.83286 10036 ft 269 kts 320°
2026-05-01 14:57 54.03886 27.80986 10805 ft 272 kts 320°
2026-05-01 14:58 54.05210 27.78655 11594 ft 275 kts 320°
2026-05-01 14:58 54.06531 27.76329 12371 ft 278 kts 321°
2026-05-01 14:58 54.07673 27.73622 13116 ft 296 kts 300°
2026-05-01 14:58 54.08063 27.70055 13715 ft 325 kts 275°
2026-05-01 14:59 54.07590 27.66087 13911 ft 357 kts 259°
2026-05-01 14:59 54.06826 27.61913 14097 ft 381 kts 257°
2026-05-01 14:59 54.05970 27.57540 14445 ft 396 kts 257°
2026-05-01 14:59 54.05084 27.53075 15055 ft 401 kts 257°
2026-05-01 15:00 54.03302 27.43956 16378 ft 410 kts 258°
2026-05-01 15:00 54.02414 27.39324 17035 ft 415 kts 258°
2026-05-01 15:00 54.01519 27.34630 17675 ft 419 kts 258°
2026-05-01 15:01 54.00616 27.29886 18299 ft 423 kts 258°
2026-05-01 15:01 53.99706 27.25109 18891 ft 427 kts 258°
2026-05-01 15:01 53.98783 27.20274 19433 ft 431 kts 258°
2026-05-01 15:01 53.97851 27.15410 19957 ft 436 kts 258°
2026-05-01 15:02 53.96904 27.10475 20463 ft 440 kts 258°
2026-05-01 15:02 53.96593 27.08864 20632 ft 442 kts 258°
2026-05-01 15:02 53.94981 27.00511 21526 ft 448 kts 258°
2026-05-01 15:02 53.94003 26.95454 22037 ft 452 kts 258°
2026-05-01 15:03 53.93026 26.90418 22526 ft 456 kts 258°
2026-05-01 15:03 53.92018 26.85217 23024 ft 461 kts 258°
2026-05-01 15:03 53.91025 26.80091 23504 ft 464 kts 258°
2026-05-01 15:03 53.89981 26.74877 23946 ft 471 kts 254°
2026-05-01 15:04 53.88300 26.70010 24306 ft 488 kts 233°
2026-05-01 15:04 53.85933 26.65858 24801 ft 491 kts 227°
2026-05-01 15:04 53.83480 26.61812 25226 ft 494 kts 227°
2026-05-01 15:04 53.81000 26.57766 25572 ft 498 kts 227°
2026-05-01 15:05 53.78498 26.53679 25914 ft 501 kts 227°
2026-05-01 15:05 53.75990 26.49557 26294 ft 504 kts 227°
2026-05-01 15:05 53.73475 26.45400 26686 ft 506 kts 227°
2026-05-01 15:05 53.70957 26.41221 27040 ft 509 kts 228°
2026-05-01 15:06 53.68460 26.37070 27394 ft 511 kts 228°
2026-05-01 15:06 53.65919 26.32846 27728 ft 514 kts 228°
2026-05-01 15:06 53.63363 26.28603 28064 ft 517 kts 227°
2026-05-01 15:06 53.60791 26.24343 28364 ft 520 kts 227°
2026-05-01 15:07 53.58204 26.20066 28679 ft 522 kts 227°
2026-05-01 15:07 53.55598 26.15770 29000 ft 525 kts 227°
2026-05-01 15:07 53.52979 26.11459 29314 ft 527 kts 227°
2026-05-01 15:07 53.50349 26.07141 29631 ft 529 kts 227°
2026-05-01 15:08 53.47745 26.02873 30043 ft 529 kts 227°
2026-05-01 15:08 53.45115 25.98573 30498 ft 527 kts 227°
2026-05-01 15:08 53.42491 25.94291 30906 ft 525 kts 227°
2026-05-01 15:08 53.39872 25.90022 31241 ft 525 kts 227°
2026-05-01 15:09 53.37249 25.85754 31576 ft 525 kts 227°
2026-05-01 15:09 53.34623 25.81486 31953 ft 524 kts 227°
2026-05-01 15:09 53.32014 25.77256 32351 ft 522 kts 227°
2026-05-01 15:09 53.29401 25.73028 32716 ft 521 kts 227°
2026-05-01 15:10 53.26787 25.68803 33045 ft 521 kts 227°
2026-05-01 15:10 53.21580 25.60413 33840 ft 517 kts 227°
2026-05-01 15:10 53.18997 25.56264 34259 ft 515 kts 226°
2026-05-01 15:11 53.12023 25.45084 34281 ft 528 kts 226°
2026-05-01 15:12 53.06681 25.36558 34279 ft 536 kts 226°
2026-05-01 15:12 52.98549 25.23646 34268 ft 540 kts 226°
2026-05-01 15:14 52.84960 25.02227 34273 ft 540 kts 226°
2026-05-01 15:14 52.76783 24.89430 34244 ft 539 kts 225°
2026-05-01 15:15 52.65917 24.72530 34278 ft 535 kts 225°
2026-05-01 15:16 52.55102 24.55830 34277 ft 534 kts 225°
2026-05-01 15:18 52.41517 24.35021 34280 ft 534 kts 225°
2026-05-01 15:19 52.30623 24.18466 34280 ft 534 kts 224°
2026-05-01 15:19 52.22470 24.06155 34298 ft 535 kts 224°
2026-05-01 15:20 52.14242 23.93795 34294 ft 535 kts 224°
2026-05-01 15:21 52.09151 23.85048 34283 ft 531 kts 238°
2026-05-01 15:21 52.05147 23.74998 34286 ft 530 kts 239°
2026-05-01 15:21 52.02860 23.70270 34278 ft 534 kts 228°
2026-05-01 15:22 51.96961 23.63083 34282 ft 536 kts 206°
2026-05-01 15:22 51.90189 23.58388 34290 ft 535 kts 200°
2026-05-01 15:23 51.83305 23.53803 34285 ft 535 kts 201°
2026-05-01 15:23 51.76440 23.49136 34282 ft 535 kts 201°
2026-05-01 15:24 51.69578 23.44427 34288 ft 535 kts 201°
2026-05-01 15:24 51.62729 23.39732 34285 ft 535 kts 201°
2026-05-01 15:25 51.55874 23.35055 34288 ft 535 kts 201°
2026-05-01 15:25 51.49061 23.30427 34285 ft 534 kts 201°
2026-05-01 15:26 51.42212 23.25791 34282 ft 534 kts 201°
2026-05-01 15:26 51.35372 23.21176 34287 ft 534 kts 201°
2026-05-01 15:27 51.28494 23.16550 34289 ft 534 kts 201°
2026-05-01 15:28 51.18215 23.09664 34287 ft 533 kts 201°
2026-05-01 15:28 51.11374 23.05100 34291 ft 533 kts 201°
2026-05-01 15:29 51.01142 22.98302 34286 ft 533 kts 200°
2026-05-01 15:30 50.87426 22.89238 34284 ft 534 kts 200°
2026-05-01 15:31 50.66834 22.75740 34288 ft 534 kts 200°
2026-05-01 15:32 50.53124 22.66824 34288 ft 533 kts 200°
2026-05-01 15:34 50.32588 22.53573 34288 ft 531 kts 200°